Regional Weather Roundup
Issued by NWS

Home | Current Version | Previous Version | Text Only | Print | Product List | Glossary On
Versions: 1 2 3 4 5 6 7 8 9 10 11 12 13 14 15 16 17 18 19 20 21 22 23 24 25 26 27 28 29 30 31 32 33 34 35 36 37 38 39 40 41 42 43 44 45 46 47 48 49 50
000
ASUS45 KBOU 221207
RWRCO

WEATHER ROUNDUP FOR COLORADO
NATIONAL WEATHER SERVICE DENVER/BOULDER CO
600 AM MDT WED MAR 22 2017

NOTE: "FAIR" INDICATES FEW OR NO CLOUDS BELOW 12000 FEET WITH NO
SIGNIFICANT WEATHER AND/OR OBSTRUCTIONS TO VISIBILITY.

COZ001>005-013-030-031-221300-
...NORTHWEST COLORADO...

CITY           SKY/WX    TMP DP  RH WIND       PRES   REMARKS
CRAIG          MOCLDY    39  30  70 SW8       30.01R
HAYDEN         FAIR      45  27  49 E10       30.02S
MEEKER         MOCLDY    48  29  47 CALM      30.01R
MOUNT WERNER   NOT AVBL
STEAMBOAT SPGS CLOUDY    40  31  69 N3        30.06R
WALDEN         NOT AVBL
$$

COZ006>008-011-221300-
...WEST CENTRAL VALLEYS...

CITY           SKY/WX    TMP DP  RH WIND       PRES   REMARKS
GRAND JUNCTION FAIR      57  30  35 SE13      29.95R
MONTROSE       FAIR      55  28  35 E9        30.03F
EAGLE          MOCLDY    37  29  72 E5        30.11S
RIFLE          FAIR      48  33  56 SW5       30.00S
DELTA          FAIR      54  31  41 NE9       30.01S
NUCLA          FAIR      54  23  30 E6        30.08S
$$

COZ017>023-064>068-221300-
...SOUTHWEST COLORADO...

CITY           SKY/WX    TMP DP  RH WIND       PRES   REMARKS
DURANGO        FAIR      37  28  70 N5        30.15R
CORTEZ         FAIR      38  29  70 N3        30.07F
PAGOSA SPRINGS FAIR      38  28  69 CALM      30.20S
TELLURIDE      NOT AVBL
WOLF CREEK PAS CLOUDY    32  19  59 S17G24    30.38R WCI  21
$$

COZ009-010-012-014-032>034-037-058>063-221300-
...CENTRAL COLORADO...

CITY           SKY/WX    TMP DP  RH WIND       PRES   REMARKS
ASPEN          FAIR      41  26  55 S3        30.11R
BUENA VISTA    FAIR      30  26  85 CALM      30.19S
COPPER MTN     MOCLDY    37  19  48 S7        30.31S
BERTHOUD PASS  FAIR      32  21  64 W24G31    30.29F WCI  19
COTTONWOOD PAS FAIR      45  21  39 S3        30.23S
GUNNISON       FAIR      33  30  88 CALM      30.19F
KREMMLING      FAIR      37  30  75 CALM      30.14R
LEADVILLE      FAIR      28  20  71 CALM      30.22S
SALIDA         FAIR      40  33  78 NW3       30.25S
SUNLIGHT       NOT AVBL
WILKERSON PASS FAIR      34  23  64 SW16G24   30.28S WCI  23
$$

COZ069>075-221300-
...SAN LUIS VALLEY/SANGRE DE CRISTO MOUNTAINS...

CITY           SKY/WX    TMP DP  RH WIND       PRES   REMARKS
ALAMOSA        FAIR      29  22  75 CALM      30.17S
LA VETA PASS   NOT AVBL
SAGUACHE       FAIR      36  27  69 NW9       30.19S
$$

COZ035-036-038>040-221300-
...NORTHERN COLORADO FRONT RANGE...

CITY           SKY/WX    TMP DP  RH WIND       PRES   REMARKS
DENVER INTL AP FAIR      38  32  79 W8        30.04S
DMNS CITY PARK   N/A     39  33  79 N1        30.05S
AURORA         PTCLDY    38  32  77 SW7       30.06R
FRONT RANGE AP FAIR      37  32  81 SW6       30.05S
ERIE MUNI ARPT FAIR      32  30  92 CALM      30.05S
BOULDER MUN AP FAIR      36  32  87 CALM      30.04F
CENTENNIAL     FAIR      37  30  75 S3        30.05R
BROOMFIELD     FAIR      37  32  81 N12       30.05S
FORT COLLINS   FAIR      35  29  78 N10       30.05F WCI  27
LONGMONT       FAIR      38  32  77 N7        30.05F
$$

COZ041-046-047-076>085-087-088-221300-
...PIKES PEAK/PALMER DIVIDE AND SOUTHERN FOOTHILLS...

CITY           SKY/WX    TMP DP  RH WIND       PRES   REMARKS
COLO. SPRINGS  CLOUDY    36  29  75 SE7       30.16F
A. F. ACADEMY  CLOUDY    36  30  79 SE8       30.14S
SCHRIEVER AFB  CLOUDY    34  28  80 S7        30.16F WCI  28
ELLICOTT         N/A    N/A N/A N/A SE9       30.14F
FALCON         CLOUDY    33  31  92 S7        30.16S WCI  27
FORT CARSON    CLOUDY    37  28  70 E5        30.15S
LIMON          CLOUDY    34  25  69 S13G21    30.15S WCI  25
MONUMENT HILL  CLOUDY    32  30  93 S15G21    30.12S WCI  22
TRINIDAD       FAIR      37  31  78 NW8       30.13S
$$

COZ042>045-048>051-090-091-221300-
...NORTHEAST COLORADO...

CITY           SKY/WX    TMP DP  RH WIND       PRES   REMARKS
GREELEY ARPT   FAIR      36  29  75 E9        30.04F
AKRON          FAIR      34  24  67 SE22G30   30.11F WCI  22
BURLINGTON     CLOUDY    39  32  76 SE21      30.17S
WRAY           CLOUDY    37  32  81 SE13      30.18F
STERLING       FAIR      36  30  80 S12       30.11S
HOLYOKE        FAIR      36  32  87 SE15      30.17F
FORT MORGAN    FAIR      36  24  61 SE16G22   30.09S
$$

COZ086-089-092>099-221300-
...SOUTHEAST COLORADO...

CITY           SKY/WX    TMP DP  RH WIND       PRES   REMARKS
PUEBLO         FAIR      35  28  75 N6        30.15S WCI  30
LA JUNTA       FAIR      39  32  76 SE13      30.14R
LAMAR          CLOUDY    44  27  51 SE9       30.16F
SPRINGFIELD      N/A     38  35  89 S7        30.18F
$$



USA.gov is the U.S. government's official web portal to all federal, state and local government web resources and services.